Hourly Weather Allepuz

Today, 8 March, Monday

Time Temperature Precipitation Wind Pressure Humidity
00:00 +3°C° 0 mm 1 mps 633 mmHg 95%
01:00 +3°C° 0.4 mm 1 mps 633 mmHg 95%
02:00 +2°C° 0.4 mm 2 mps 632 mmHg 95%
03:00 +2°C° 0.4 mm 2 mps 632 mmHg 95%
04:00 +2°C° 0.1 mm 2 mps 632 mmHg 94%
05:00 +2°C° 0.1 mm 2 mps 632 mmHg 94%
06:00 +2°C° 0 mm 2 mps 632 mmHg 95%
07:00 +2°C° 0.2 mm 2 mps 632 mmHg 94%
08:00 +2°C° 0.2 mm 2 mps 632 mmHg 92%
09:00 +2°C° 0.2 mm 2 mps 633 mmHg 91%
10:00 +2°C° 0.2 mm 2 mps 633 mmHg 89%
11:00 +2°C° 0.2 mm 2 mps 632 mmHg 87%
12:00 +2°C° 0.2 mm 3 mps 632 mmHg 85%
13:00 +2°C° 0.1 mm 3 mps 632 mmHg 81%
14:00 +3°C° 0.1 mm 3 mps 632 mmHg 77%
15:00 +3°C° 0.1 mm 3 mps 632 mmHg 73%
16:00 +2°C° 0 mm 3 mps 632 mmHg 77%
17:00 +2°C° 0 mm 3 mps 632 mmHg 81%
18:00 +1°C° 0 mm 3 mps 632 mmHg 85%
19:00 0°C° 0 mm 3 mps 632 mmHg 86%
20:00 +1°C° 0 mm 2 mps 633 mmHg 88%
21:00 -1°C° 0 mm 2 mps 633 mmHg 89%
22:00 -1°C° 0 mm 2 mps 633 mmHg 89%
23:00 -1°C° 0 mm 2 mps 633 mmHg 89%

Tomorrow, 9 March, Tuesday

Time Temperature Precipitation Wind Pressure Humidity
00:00 0°C° 0 mm 1 mps 633 mmHg 89%
01:00 0°C° 0 mm 1 mps 633 mmHg 89%
02:00 0°C° 0 mm 1 mps 633 mmHg 88%
03:00 -3°C° 0 mm 2 mps 632 mmHg 87%
04:00 -3°C° 0 mm 2 mps 632 mmHg 87%
05:00 -4°C° 0 mm 2 mps 632 mmHg 87%
06:00 -4°C° 0 mm 2 mps 632 mmHg 87%
07:00 -3°C° 0 mm 2 mps 633 mmHg 81%
08:00 -1°C° 0 mm 2 mps 634 mmHg 76%
09:00 0°C° 0 mm 3 mps 635 mmHg 70%
10:00 +1°C° 0 mm 3 mps 635 mmHg 66%
11:00 +2°C° 0 mm 3 mps 635 mmHg 62%
12:00 +4°C° 0 mm 3 mps 635 mmHg 58%
13:00 +4°C° 0 mm 3 mps 635 mmHg 57%
14:00 +4°C° 0 mm 3 mps 635 mmHg 56%
15:00 +4°C° 0 mm 3 mps 634 mmHg 54%
16:00 +4°C° 0 mm 3 mps 634 mmHg 60%
17:00 +4°C° 0 mm 2 mps 634 mmHg 65%
18:00 +3°C° 0 mm 2 mps 634 mmHg 71%
19:00 +2°C° 0 mm 2 mps 634 mmHg 76%
20:00 +1°C° 0 mm 1 mps 634 mmHg 81%
21:00 0°C° 0 mm 1 mps 634 mmHg 86%
22:00 0°C° 0 mm 1 mps 634 mmHg 85%
23:00 0°C° 0 mm 1 mps 634 mmHg 84%

Day after tomorrow, 10 March, Wednesday

Time Temperature Precipitation Wind Pressure Humidity
00:00 -1°C° 0 mm 1 mps 634 mmHg 83%
01:00 -1°C° 0 mm 1 mps 634 mmHg 82%
02:00 -1°C° 0 mm 1 mps 634 mmHg 82%
03:00 -1°C° 0 mm 1 mps 634 mmHg 81%
04:00 -1°C° 0 mm 1 mps 634 mmHg 79%
05:00 -2°C° 0 mm 1 mps 634 mmHg 78%
06:00 -2°C° 0 mm 1 mps 635 mmHg 77%
07:00 0°C° 0 mm 1 mps 636 mmHg 63%
08:00 +2°C° 0 mm 1 mps 637 mmHg 50%
09:00 +4°C° 0 mm 1 mps 638 mmHg 37%
10:00 +4°C° 0 mm 2 mps 638 mmHg 32%
11:00 +6°C° 0 mm 2 mps 639 mmHg 28%
12:00 +7°C° 0 mm 2 mps 639 mmHg 23%
13:00 +8°C° 0 mm 2 mps 639 mmHg 22%
14:00 +9°C° 0 mm 2 mps 639 mmHg 22%
15:00 +9°C° 0 mm 2 mps 639 mmHg 21%
16:00 +7°C° 0 mm 2 mps 638 mmHg 26%
17:00 +6°C° 0 mm 1 mps 638 mmHg 32%
18:00 +4°C° 0 mm 1 mps 637 mmHg 37%
19:00 +4°C° 0 mm 1 mps 637 mmHg 37%
20:00 +3°C° 0 mm 1 mps 638 mmHg 37%
21:00 +2°C° 0 mm 1 mps 638 mmHg 38%
22:00 +2°C° 0 mm 1 mps 638 mmHg 41%
23:00 +2°C° 0 mm 1 mps 638 mmHg 44%

11 March, Thursday

Time Temperature Precipitation Wind Pressure Humidity
00:00 +2°C° 0 mm 1 mps 638 mmHg 47%
01:00 +2°C° 0 mm 1 mps 638 mmHg 47%
02:00 +2°C° 0 mm 1 mps 638 mmHg 48%
03:00 +2°C° 0 mm 1 mps 638 mmHg 48%
04:00 +2°C° 0 mm 1 mps 638 mmHg 48%
05:00 +2°C° 0 mm 1 mps 638 mmHg 47%
06:00 +2°C° 0 mm 1 mps 638 mmHg 46%
07:00 +3°C° 0 mm 2 mps 639 mmHg 42%
08:00 +6°C° 0 mm 2 mps 640 mmHg 38%
09:00 +8°C° 0 mm 2 mps 641 mmHg 34%
10:00 +9°C° 0 mm 2 mps 641 mmHg 36%
11:00 +10°C° 0 mm 2 mps 641 mmHg 37%
12:00 +12°C° 0 mm 3 mps 642 mmHg 39%
13:00 +12°C° 0 mm 3 mps 641 mmHg 40%
14:00 +12°C° 0 mm 3 mps 641 mmHg 42%
15:00 +13°C° 0 mm 3 mps 641 mmHg 44%
16:00 +12°C° 0 mm 2 mps 640 mmHg 51%
17:00 +10°C° 0 mm 2 mps 640 mmHg 57%
18:00 +8°C° 0 mm 2 mps 639 mmHg 64%
19:00 +7°C° 0 mm 2 mps 639 mmHg 69%
20:00 +6°C° 0 mm 2 mps 639 mmHg 75%
21:00 +5°C° 0 mm 2 mps 639 mmHg 80%
22:00 +5°C° 0 mm 2 mps 638 mmHg 81%
23:00 +4°C° 0 mm 2 mps 638 mmHg 82%

12 March, Friday

Time Temperature Precipitation Wind Pressure Humidity
00:00 +4°C° 0 mm 2 mps 638 mmHg 83%
01:00 +4°C° 0 mm 2 mps 637 mmHg 84%
02:00 +3°C° 0 mm 2 mps 637 mmHg 85%
03:00 +3°C° 0 mm 2 mps 636 mmHg 87%
04:00 +3°C° 0 mm 2 mps 636 mmHg 87%
05:00 +3°C° 0 mm 1 mps 636 mmHg 87%
06:00 +3°C° 0 mm 1 mps 636 mmHg 88%
07:00 +4°C° 0 mm 2 mps 637 mmHg 81%
08:00 +6°C° 0 mm 2 mps 638 mmHg 74%
09:00 +7°C° 0 mm 3 mps 639 mmHg 67%
10:00 +8°C° 0 mm 3 mps 639 mmHg 63%
11:00 +8°C° 0 mm 4 mps 639 mmHg 60%
12:00 +8°C° 0 mm 5 mps 639 mmHg 57%
13:00 +7°C° 0.1 mm 5 mps 638 mmHg 60%
14:00 +7°C° 0.1 mm 6 mps 638 mmHg 64%
15:00 +5°C° 0.1 mm 6 mps 637 mmHg 67%
16:00 +4°C° 0.1 mm 6 mps 637 mmHg 66%
17:00 +3°C° 0.1 mm 5 mps 637 mmHg 65%
18:00 +2°C° 0.1 mm 5 mps 637 mmHg 64%
19:00 +1°C° 0 mm 4 mps 637 mmHg 72%
20:00 0°C° 0 mm 4 mps 637 mmHg 80%
21:00 -1°C° 0 mm 3 mps 637 mmHg 87%
22:00 -1°C° 0 mm 3 mps 637 mmHg 88%
23:00 -2°C° 0 mm 2 mps 637 mmHg 90%

13 March, Saturday

Time Temperature Precipitation Wind Pressure Humidity
00:00 -3°C° 0 mm 2 mps 638 mmHg 91%
01:00 -3°C° 0 mm 2 mps 637 mmHg 91%
02:00 -3°C° 0 mm 2 mps 637 mmHg 90%
03:00 -3°C° 0 mm 2 mps 637 mmHg 90%
04:00 -1°C° 0 mm 1 mps 637 mmHg 90%
05:00 -1°C° 0 mm 1 mps 637 mmHg 90%
06:00 -1°C° 0 mm 1 mps 637 mmHg 89%
07:00 -2°C° 0 mm 2 mps 638 mmHg 81%
08:00 +1°C° 0 mm 2 mps 639 mmHg 72%
09:00 +2°C° 0 mm 3 mps 640 mmHg 64%
10:00 +3°C° 0 mm 3 mps 640 mmHg 56%
11:00 +5°C° 0 mm 4 mps 641 mmHg 49%
12:00 +6°C° 0 mm 4 mps 641 mmHg 41%
13:00 +7°C° 0 mm 4 mps 641 mmHg 39%
14:00 +8°C° 0 mm 4 mps 641 mmHg 37%
15:00 +8°C° 0 mm 4 mps 640 mmHg 35%
16:00 +7°C° 0 mm 4 mps 640 mmHg 41%
17:00 +5°C° 0 mm 3 mps 639 mmHg 47%
18:00 +5°C° 0 mm 2 mps 639 mmHg 53%
19:00 +4°C° 0 mm 2 mps 639 mmHg 60%
20:00 +4°C° 0 mm 1 mps 639 mmHg 66%
21:00 +2°C° 0 mm 1 mps 639 mmHg 73%
22:00 +2°C° 0 mm 1 mps 639 mmHg 74%
23:00 +2°C° 0 mm 1 mps 639 mmHg 76%
Show more